EW1476 Weather Reports


Display with metric or nautical units.
time (UTC)temp
F
wind
direction
speed
MPH
gust
MPH
rain 1hr
in
rain 24hr
in
rain mn
in
humidity
%
barometer
mb
20260905141510 73 283 0.0 0.0 0.00 0.00 0.00 81 1013.7
20260905140007 73 283 0.0 0.0 0.00 0.00 0.00 82 1013.5
20260905134505 73 283 0.0 0.0 0.00 0.00 0.00 82 1013.4
20260905133011 72 283 0.0 0.0 0.00 0.00 0.00 84 1013.6
20260905131528 72 283 0.0 0.0 0.00 0.00 0.00 84 1013.6
20260905130014 72 283 0.0 0.0 0.00 0.00 0.00 86 1013.6
20260905124514 71 283 0.0 0.0 0.00 0.00 0.00 87 1013.3
20260905123012 71 283 0.0 0.0 0.00 0.00 0.00 88 1013.1
20260905121508 71 283 0.0 0.0 0.00 0.00 0.00 90 1013.2
20260905120023 71 283 0.0 0.0 0.00 0.00 0.00 91 1013.2
20260905114520 70 283 0.0 0.0 0.00 0.00 0.00 91 1013.1
20260905113023 70 283 0.0 0.0 0.00 0.00 0.00 91 1013.0
20260905111521 70 283 0.0 0.0 0.00 0.00 0.00 91 1012.9
20260905110015 70 283 0.0 0.0 0.00 0.00 0.00 91 1012.5
20260905104523 70 283 0.0 0.0 0.00 0.00 0.00 92 1012.4
20260905103025 70 283 0.0 0.0 0.00 0.00 0.00 92 1012.2
20260905101529 70 283 0.0 0.0 0.00 0.00 0.00 92 1012.1
20260905100027 70 283 0.0 0.0 0.00 0.00 0.00 91 1011.9
20260905094542 70 283 0.0 0.0 0.00 0.00 0.00 92 1011.9
20260905093020 70 283 0.0 0.0 0.00 0.00 0.00 92 1012.0
20260905091528 70 283 0.0 0.0 0.00 0.00 0.00 92 1011.9
20260905090031 70 283 0.0 0.0 0.00 0.00 0.00 93 1011.9
20260905084506 70 283 0.0 0.0 0.00 0.00 0.00 93 1011.9
20260905083005 69 283 0.0 0.0 0.00 0.00 0.00 93 1011.9
20260905081504 69 283 0.0 0.0 0.00 0.00 0.00 93 1011.9
20260905080005 70 283 0.0 0.0 0.00 0.00 0.00 92 1012.3
20260905074504 71 283 0.0 0.0 0.00 0.00 0.00 92 1012.2
20260905073015 70 283 0.0 0.0 0.00 0.00 0.00 92 1012.3
20260905071510 70 283 0.0 0.0 0.00 0.00 0.00 92 1012.2
20260905070005 71 283 0.0 0.0 0.00 0.00 0.00 92 1012.6
20260905064504 71 283 0.0 0.0 0.00 0.00 0.00 92 1012.8
20260905063005 71 283 0.0 0.0 0.00 0.00 0.00 92 1013.0
20260905061525 71 283 0.0 0.0 0.00 0.00 0.00 93 1013.3
20260905060022 71 283 0.0 0.0 0.00 0.00 0.00 93 1013.3
20260905054521 71 283 0.0 0.0 0.00 0.00 0.00 93 1013.4
20260905053011 71 283 0.0 0.0 0.00 0.00 0.00 93 1013.6
20260905051524 72 283 0.0 0.0 0.00 0.01 0.00 93 1013.6
20260905050006 72 283 0.0 0.0 0.00 0.01 0.00 93 1013.8
20260905044526 72 283 0.0 0.0 0.00 0.01 0.00 93 1013.9
20260905043022 72 283 0.0 0.0 0.00 0.02 0.00 93 1014.0
20260905041514 72 283 0.0 0.0 0.00 0.02 0.00 93 1013.9
20260905040015 72 283 0.0 0.0 0.00 0.03 0.00 93 1014.0
20260905034511 73 283 0.0 0.0 0.00 0.04 0.03 93 1014.0
20260905033005 73 283 0.0 0.0 0.00 0.04 0.03 93 1014.1
20260905031536 73 283 0.0 0.0 0.00 0.04 0.03 92 1014.1
20260905030024 73 283 0.0 0.0 0.00 0.04 0.03 92 1014.0
20260905024536 74 283 0.0 0.0 0.00 0.08 0.03 92 1013.8
20260905023019 74 288 0.0 0.0 0.00 0.08 0.03 91 1013.6
20260905021512 74 288 0.0 0.0 0.00 0.08 0.03 91 1013.6
20260905020034 75 288 0.0 0.0 0.00 0.08 0.03 92 1013.6
20260905014531 75 288 0.0 0.0 0.00 0.08 0.03 92 1013.4
20260905013025 75 288 0.0 0.0 0.00 0.08 0.03 92 1013.2
20260905011525 75 288 0.0 0.0 0.00 0.08 0.03 92 1013.1
20260905010017 75 288 0.0 0.0 0.00 0.08 0.03 91 1013.0
20260905004514 76 288 0.0 0.0 0.00 0.08 0.03 90 1013.1
20260905003033 76 288 0.0 0.0 0.00 0.08 0.03 90 1013.0
20260905001530 77 290 0.0 0.0 0.00 0.08 0.03 89 1012.9
20260905000033 77 290 0.0 0.0 0.00 0.08 0.03 88 1013.1
20260904234529 77 290 0.0 0.0 0.00 0.08 0.03 88 1013.0
20260904233018 77 290 0.0 0.0 0.00 0.08 0.03 88 1013.0
20260904231514 77 290 0.0 0.0 0.00 0.08 0.03 89 1013.5
20260904230045 78 290 0.0 0.0 0.00 0.08 0.03 87 1013.2
20260904224533 78 290 0.0 0.0 0.00 0.08 0.03 86 1013.3
20260904223030 79 290 0.0 0.0 0.00 0.08 0.03 85 1013.2
20260904221527 79 290 0.0 0.0 0.00 0.08 0.03 85 1013.3
20260904220024 79 290 0.0 0.0 0.00 0.08 0.03 87 1013.6
20260904214540 79 290 0.0 0.0 0.00 0.08 0.03 84 1013.5
20260904213035 78 290 0.0 0.0 0.00 0.08 0.03 84 1013.6
20260904211532 78 290 0.0 0.0 0.00 0.08 0.03 84 1013.9
20260904210030 78 290 0.0 0.0 0.00 0.08 0.03 85 1014.1
20260904204507 79 290 0.0 0.0 0.00 0.08 0.03 84 1014.2
20260904203030 80 290 0.0 0.0 0.00 0.08 0.03 80 1014.2
20260904201537 80 290 0.0 0.0 0.00 0.08 0.03 77 1014.1
20260904200036 81 293 0.0 1.0 0.00 0.08 0.03 74 1014.2
20260904194515 82 293 0.0 1.0 0.00 0.08 0.03 74 1014.2
20260904193012 81 293 0.0 1.0 0.00 0.08 0.03 74 1014.4
20260904191531 82 295 0.0 1.0 0.00 0.08 0.03 73 1014.1
20260904190029 82 295 0.0 1.0 0.00 0.08 0.03 72 1014.3
20260904184523 82 285 1.0 3.0 0.00 0.08 0.03 72 1014.8
20260904183022 82 277 1.0 4.0 0.00 0.08 0.03 74 1015.0
20260904181518 81 281 0.0 2.0 0.00 0.08 0.03 74 1015.0
20260904180010 81 283 0.0 3.0 0.00 0.08 0.03 75 1015.0
20260904174508 80 282 1.0 3.0 0.00 0.08 0.03 74 1015.1
20260904173008 80 278 0.0 0.0 0.00 0.08 0.03 75 1015.1
20260904171504 80 276 0.0 2.0 0.00 0.08 0.03 78 1015.2
20260904170004 80 280 0.0 2.0 0.00 0.08 0.03 76 1015.4
20260904164518 79 283 1.0 3.0 0.00 0.08 0.03 78 1015.6
20260904163036 79 278 0.0 1.0 0.00 0.08 0.03 79 1015.8
20260904161510 78 276 1.0 1.0 0.00 0.08 0.03 79 1016.0
20260904160007 78 282 0.0 1.0 0.00 0.09 0.03 79 1015.9
20260904154504 77 283 1.0 1.0 0.00 0.09 0.03 80 1016.0
20260904153006 77 283 1.0 2.0 0.00 0.10 0.03 79 1016.1
20260904151535 76 283 1.0 3.0 0.00 0.10 0.03 81 1016.2
20260904150022 76 283 0.0 2.0 0.00 0.15 0.03 82 1016.4
20260904144516 76 281 1.0 2.0 0.00 0.18 0.03 82 1016.3
20260904143012 76 282 1.0 2.0 0.00 0.19 0.03 83 1016.4